Regional Weather Roundup
Issued by NWS

Home | Current Version | Previous Version | Text Only | Print | Product List | Glossary On
Versions: 1 2 3 4 5 6 7 8 9 10 11 12 13 14 15 16 17 18 19 20 21 22 23 24 25 26 27 28 29 30 31 32 33 34 35 36 37 38 39 40 41 42 43 44 45 46 47 48 49 50
044
ASUS43 KMKX 282021
RWRWI

WISCONSIN REGIONAL WEATHER ROUNDUP
NATIONAL WEATHER SERVICE MILWAUKEE/SULLIVAN WI
300 PM CDT THU APR 28 2016

NOTE: "FAIR" INDICATES FEW OR NO CLOUDS BELOW 12,000 FEET WITH NO
SIGNIFICANT WEATHER AND/OR OBSTRUCTIONS TO VISIBILITY.

WIZ001-002-006>008-014>016-023>028-282100-
NORTHWEST WISCONSIN

CITY           SKY/WX    TMP DP  RH WIND       PRES   REMARKS
SUPERIOR ARPT  CLOUDY    43  33  68 NE16G24   30.12S
ASHLAND        CLOUDY    44  32  62 NE17G26   30.11R
HAYWARD        CLOUDY    50  29  44 NE18      30.03R
SIREN          CLOUDY    52  23  33 NE10      30.03R
CUMBERLAND     CLOUDY    50  25  37 E5        30.01S
RICE LAKE      CLOUDY    51  24  34 E5        30.02S
CHETEK         CLOUDY    48  33  54 CALM      30.01S
LADYSMITH      CLOUDY    51  22  31 NE13      30.03R
EAU CLAIRE     LGT RAIN  42  37  82 E10       30.02R
MENOMONIE      DRIZZLE   41  41  99 E12       30.03S
NEW RICHMOND   CLOUDY    43  33  67 SE6       30.03S
OSCEOLA        CLOUDY    46  35  66 S5        30.05F
$$

WIZ003>005-009-010-017-018-282100-
NORTH CENTRAL WISCONSIN

CITY           SKY/WX    TMP DP  RH WIND       PRES   REMARKS
MANITOWISH WTR PTSUNNY   54  20  27 E8G16     30.02S
ARBOR VITAE    MOSUNNY   55  18  23 E14G20    30.02S
WOODRUFF       MOSUNNY   55  18  23 E14G20    30.02S
RHINELANDER    CLOUDY    53  18  25 E13       30.01F
EAGLE RIVER    MOSUNNY   54  17  23 E8        30.01F
LAND O LAKES   MOSUNNY   53  17  24 SE13      30.03S
PHILLIPS       PTSUNNY   52  21  29 E8G25     30.01F
TOMAHAWK       CLOUDY    52  19  27 E7        30.01F
MEDFORD        LGT RAIN  45  29  53 E10G16    30.00S
MERRILL        CLOUDY    48  25  40 E13G22    30.01F
$$

WIZ029-030-035-036-043>047-282100-
CENTRAL WISCONSIN

CITY           SKY/WX    TMP DP  RH WIND       PRES   REMARKS
WAUSAU         LGT RAIN  45  33  63 SE12      30.01R
MOSINEE        LGT RAIN  39  36  87 E6        30.04R WCI  35
MARSHFIELD     LGT RAIN  40  35  83 E17G24    30.00S WCI  31
STEVENS POINT  LGT RAIN  36  33  92 E7        30.03S WCI  30
WAUPACA        CLOUDY    41  36  80 NE9       30.03S
WAUTOMA        NOT AVBL
WISC RAPIDS    LGT RAIN  39  36  89 E8        30.03R WCI  33
CAMP DOUGLAS   CLOUDY    41  41 100 E14       29.99R
$$

WIZ011>013-019>022-031-037>040-048>050-282100-
NORTHEAST WISCONSIN

CITY           SKY/WX    TMP DP  RH WIND       PRES   REMARKS
ANTIGO         CLOUDY    47  26  42 E9        30.02S
SHAWANO        CLOUDY    49  26  41 E7        30.04S
OCONTO         CLOUDY    45  29  53 E8        30.05F
STURGEON BAY   CLOUDY    45  28  53 E9        30.08S
GREEN BAY      CLOUDY    47  30  51 NE10      30.03F
MANITOWOC      CLOUDY    44  33  65 E14G20    30.03F
APPLETON       CLOUDY    43  27  52 E13G21    30.00F
CLINTONVILLE   RAIN      41  32  70 NE5       30.04F
OSHKOSH        CLOUDY    42  33  70 E9        30.01S
$$

WIZ032>034-041-042-053>061-282100-
SOUTHWEST WISCONSIN

CITY           SKY/WX    TMP DP  RH WIND       PRES   REMARKS
LA CROSSE      CLOUDY    43  36  76 E12       29.98R
SPARTA         CLOUDY    41  39  95 E10       29.99R
VIROQUA        CLOUDY    40  38  94 NE12      29.95R WCI  33
BOSCOBEL       CLOUDY    45  39  79 E8        29.96R
PRAIRIE DU CHI CLOUDY    45  38  77 NE9       29.94R
PLATTEVILLE    CLOUDY    46  42  86 E12       29.92R
$$

WIZ056-057-062-063-064-067-068-282100-
SOUTH CENTRAL WISCONSIN

CITY           SKY/WX    TMP DP  RH WIND       PRES   REMARKS
REEDSBURG      CLOUDY    39  37  93 E13G18    29.97R WCI  32
BARABOO/DELLS  CLOUDY    39  37  91 E7        29.97R FOG     WCI  34
LONE ROCK      CLOUDY    43  37  79 E12       29.96R
MINERAL POINT  CLOUDY    45  41  87 NE10      29.93R
MADISON        CLOUDY    41  37  86 E13       29.96R
MIDDLETON      CLOUDY    42  38  85 E10G17    29.96R
WATERTOWN      CLOUDY    39  38  95 E12G20    29.96S WCI  32
MONROE         CLOUDY    46  39  76 E9        29.92R
JANESVILLE     CLOUDY    48  39  71 E13G18    29.93R
$$

WIZ051-052-058>065-066-070>072-282100-
SOUTHEAST WISCONSIN

CITY           SKY/WX    TMP DP  RH WIND       PRES   REMARKS
MILWAUKEE      CLOUDY    40  37  89 NE15      29.98R FOG     WCI  32
WAUKESHA       CLOUDY    37  36  93 NE16      29.97S FOG     WCI  28
MILWAUKEE/TIMM CLOUDY    37  36  93 NE8G17    30.00R FOG     WCI  31
RACINE         CLOUDY    41  36  82 NE16      29.97R
BURLINGTON     CLOUDY    40  37  86 E10       29.95R WCI  34
KENOSHA        CLOUDY    42  37  82 E18G24    29.95R
FOND DU LAC    CLOUDY    41  36  82 E15G22    30.01R
SHEBOYGAN      CLOUDY    42  34  73 E15       30.00F
WEST BEND      CLOUDY    37  36  93 E17G23    29.99S WCI  28
JUNEAU         CLOUDY    39  36  91 NE17G23   29.98F WCI  29
$$

LSZ147-162-282100-
LAKE SUPERIOR

STATION/POSITION TIME  TEMP    WIND        PRES    WAVE
                       AIR SEA DIR/SP/G            HT/PER
                 (UTC) (F)     (DEG/KT/KT) (MB)    (FT/S)
W MID LAKE BUOY  1950   37 36   50/ 16/ 19 1021.3S   4/ 6
DEVILS ISLAND    2000   38      50/ 24/ 27 1020.7F
PORT WING        1901   40      40/ 21/ 26 1019.6
SAXON HARBOR     1900   38      40/ 15/ 18 1019.0
$$

LMZ867-665-643>646-282100-
LAKE MICHIGAN

STATION/POSITION TIME  TEMP    WIND        PRES    WAVE
                       AIR SEA DIR/SP/G            HT/PER
                 (UTC) (F)     (DEG/KT/KT) (MB)    (FT/S)
CHAMBERS ISLAND  1900   42      20/ 10/ 13 1018.6S
N MID LAKE BUOY  1950   39 39   50/ 12/ 14 1018.4F   2/ 4
NORTHPORT PIER   1900   41      60/ 11/ 14 1018.3S
ALGOMA LAKESHORE 1900           60/ 18/ 20   N/A
KEWAUNEE LAKESHO 1900   41      40/ 11/ 14 1016.9R
SHEBOYGAN LAKESH 2000   40      30/ 13/ 14 1017.0F
PORT WASHINGTON  1900   40      60/ 16/ 21 1016.6R
S MID LAKE BUOY  1950   40 40   60/ 14/ 17 1014.0S   3/ 5
KENOSHA   LAKESH 2000   40      50/ 15/ 20 1014.2R
$$

TC  - TEMPERATURE IN CELSIUS
VSB - VISIBILITY IN STATUTE MILES
WCI - WIND CHILL INDEX
HX  - HEAT INDEX





USA.gov is the U.S. government's official web portal to all federal, state and local government web resources and services.